This demonstration page uses our WeatherBlox Daily Observations layout. Learn more.

Left ArrowRight Arrow

39.12711, -84.51439

Hourly Observations for July 10, 2018

Temp ( °F °C ) Dew Point ( °F °C ) Humidity (%) Winds ( mph kmh ) Pressure ( in mb ) Visibility ( mi km ) Precip ( " mm )
12:53 am 00:53 Clear 71 21.7 69 20.6 94 94 Calm 30.13 1020 10 16 0.00 0.00
1:53 am 01:53 Clear 69 20.6 69 20.6 100 100 Calm 30.13 1020 10 16 0.00 0.00
2:53 am 02:53 Clear 69 20.6 69 20.6 100 100 Calm 30.12 1020 9 14 0.00 0.00
3:53 am 03:53 Clear with Mist and Fog 68 20 68 20 100 100 NE 3 6 30.11 1020 5 8 0.00 0.00
4:53 am 04:53 Clear 68 20 68 20 100 100 Calm 30.11 1020 7 11 0.00 0.00
5:33 am 05:33 Clear with Mist and Fog 68 20 68 20 100 100 Calm 30.09 1019 2 3 0.00 0.00
5:44 am 05:44 Clear with Mist and Fog 67 19.4 67 19.4 100 100 Calm 30.09 1019 4 6 0.00 0.00
5:53 am 05:53 Clear 68 20 67 19.4 96 96 Calm 30.11 1020 7 11 0.00 0.00
6:53 am 06:53 Sunny with Patchy Fog 69 20.6 68 20 96 96 Calm 30.12 1020 10 16 0.00 0.00
7:53 am 07:53 Sunny 72 22.2 71 21.7 97 97 Calm 30.12 1020 10 16 0.00 0.00
8:53 am 08:53 Sunny 77 25 73 22.8 88 88 Calm 30.11 1020 10 16 0.00 0.00
9:53 am 09:53 Sunny 85 29.4 73 22.8 68 68 W 6 9 30.11 1020 10 16 0.00 0.00
10:53 am 10:53 Partly Cloudy 87 30.6 72 22.2 61 61 WNW 9 15 30.09 1019 10 16 0.00 0.00
11:53 am 11:53 Partly Cloudy 87 30.6 72 22.2 61 61 W 10 17 30.09 1019 10 16 0.00 0.00
12:53 pm 12:53 Partly Cloudy 88 31.1 71 21.7 57 57 W 12 19 30.07 1018 10 16 0.00 0.00
1:53 pm 13:53 Mostly Cloudy 91 32.8 71 21.7 52 52 WNW 8 13 30.06 1018 10 16 0.00 0.00
2:53 pm 14:53 Mostly Cloudy 90 32.2 70 21.1 52 52 WNW 8 13 30.03 1017 10 16 0.00 0.00
3:53 pm 15:53 Partly Cloudy 91 32.8 67 19.4 45 45 W 8 13 30.01 1016 10 16 0.00 0.00
4:53 pm 16:53 Partly Cloudy 93 33.9 68 20 44 44 WSW 9 15 29.99 1016 10 16 0.00 0.00
5:53 pm 17:53 Partly Cloudy 91 32.8 68 20 47 47 W 12 19 29.99 1016 10 16 0.00 0.00
6:53 pm 18:53 Partly Cloudy 90 32.2 69 20.6 50 50 W 10 17 30.00 1016 10 16 0.00 0.00
7:53 pm 19:53 Mostly Sunny 84 28.9 70 21.1 63 63 N 16 26 29.99 1016 10 16 0.00 0.00
8:53 pm 20:53 Sunny 80 26.7 70 21.1 71 71 ENE 3 6 29.99 1016 10 16 0.00 0.00
9:53 pm 21:53 Mostly Cloudy 77 25 71 21.7 82 82 Calm 30.00 1016 10 16 0.00 0.00
10:53 pm 22:53 Clear 80 26.7 71 21.7 74 74 W 5 7 29.99 1016 10 16 0.00 0.00
11:53 pm 23:53 Clear 77 25 71 21.7 82 82 N 6 9 30.00 1016 10 16 0.00 0.00

Powered by AerisWeather